Location: Rounton
(54.4000°N, 1.3500°W)
Time: 13:25:23
(UTC+00:00)

Transit 2A Rocket - Pass Details

Date: 30 November 2021
Orbit: 584 x 918 km, 66.7° (Epoch: 21 January)

Event Time Altitude Azimuth Distance (km) Brightness Sun altitude
Rises 09:11:42 0° 213° (SSW) 3,346 8.6 6.3°
Reaches altitude 10° 09:14:03 10° 212° (SSW) 2,460 8.0 6.5°
Maximum altitude 09:19:48 76° 128° (SE) 917 5.8 7.0°
Drops below altitude 10° 09:25:55 10° 44° (NE) 2,612 7.7 7.5°
Sets 09:28:29 0° 43° (NE) 3,567 8.3 7.7°
